﻿測定場所 (Monitoring sites),日付 (Measurement date),時間 (Measurement time),線量率 最大値 (max) μGy/h,線量率 最小値 (min) μGy/h,線量率 平均値 (average) μGy/h,
大田 (Ota),2020-10-18,23:01～24:00,0.0357,0.0307,0.0336,
大田 (Ota),2020-10-18,22:01～23:00,0.0350,0.0302,0.0331,
大田 (Ota),2020-10-18,21:01～22:00,0.0351,0.0307,0.0328,
大田 (Ota),2020-10-18,20:01～21:00,0.0345,0.0309,0.0331,
大田 (Ota),2020-10-18,19:01～20:00,0.0350,0.0307,0.0328,
大田 (Ota),2020-10-18,18:01～19:00,0.0343,0.0309,0.0325,
大田 (Ota),2020-10-18,17:01～18:00,0.0347,0.0299,0.0325,
大田 (Ota),2020-10-18,16:01～17:00,0.0346,0.0312,0.0329,
大田 (Ota),2020-10-18,15:01～16:00,0.0355,0.0307,0.0331,
大田 (Ota),2020-10-18,14:01～15:00,0.0354,0.0311,0.0334,
大田 (Ota),2020-10-18,13:01～14:00,0.0367,0.0314,0.0334,
大田 (Ota),2020-10-18,12:01～13:00,0.0355,0.0311,0.0334,
大田 (Ota),2020-10-18,11:01～12:00,0.0358,0.0319,0.0337,
大田 (Ota),2020-10-18,10:01～11:00,0.0356,0.0317,0.0336,
大田 (Ota),2020-10-18,09:01～10:00,0.0360,0.0317,0.0336,
大田 (Ota),2020-10-18,08:01～09:00,0.0365,0.0314,0.0336,
大田 (Ota),2020-10-18,07:01～08:00,0.0359,0.0314,0.0337,
大田 (Ota),2020-10-18,06:01～07:00,0.0360,0.0317,0.0337,
大田 (Ota),2020-10-18,05:01～06:00,0.0356,0.0310,0.0335,
大田 (Ota),2020-10-18,04:01～05:00,0.0353,0.0314,0.0334,
大田 (Ota),2020-10-18,03:01～04:00,0.0352,0.0317,0.0335,
大田 (Ota),2020-10-18,02:01～03:00,0.0358,0.0315,0.0338,
大田 (Ota),2020-10-18,01:01～02:00,0.0361,0.0321,0.0345,
大田 (Ota),2020-10-18,00:01～01:00,0.0388,0.0332,0.0359,
大田 (Ota),2020-10-17,23:01～24:00,0.0395,0.0344,0.0365,
大田 (Ota),2020-10-17,22:01～23:00,0.0393,0.0355,0.0370,
大田 (Ota),2020-10-17,21:01～22:00,0.0382,0.0346,0.0365,
大田 (Ota),2020-10-17,20:01～21:00,0.0416,0.0352,0.0372,
大田 (Ota),2020-10-17,19:01～20:00,0.0422,0.0356,0.0385,
大田 (Ota),2020-10-17,18:01～19:00,0.0429,0.0363,0.0400,
大田 (Ota),2020-10-17,17:01～18:00,0.0440,0.0374,0.0407,
大田 (Ota),2020-10-17,16:01～17:00,0.0433,0.0404,0.0422,
大田 (Ota),2020-10-17,15:01～16:00,0.0463,0.0400,0.0433,
大田 (Ota),2020-10-17,14:01～15:00,0.0479,0.0399,0.0446,
大田 (Ota),2020-10-17,13:01～14:00,0.0488,0.0402,0.0437,
大田 (Ota),2020-10-17,12:01～13:00,0.0494,0.0422,0.0458,
大田 (Ota),2020-10-17,11:01～12:00,0.0488,0.0429,0.0461,
大田 (Ota),2020-10-17,10:01～11:00,0.0527,0.0433,0.0472,
大田 (Ota),2020-10-17,09:01～10:00,0.0500,0.0425,0.0467,
大田 (Ota),2020-10-17,08:01～09:00,0.0486,0.0438,0.0464,
大田 (Ota),2020-10-17,07:01～08:00,0.0497,0.0413,0.0457,
大田 (Ota),2020-10-17,06:01～07:00,0.0464,0.0402,0.0430,
大田 (Ota),2020-10-17,05:01～06:00,0.0495,0.0421,0.0460,
大田 (Ota),2020-10-17,04:01～05:00,0.0519,0.0427,0.0470,
大田 (Ota),2020-10-17,03:01～04:00,0.0487,0.0365,0.0424,
大田 (Ota),2020-10-17,02:01～03:00,0.0401,0.0324,0.0348,
大田 (Ota),2020-10-17,01:01～02:00,0.0352,0.0308,0.0334,
大田 (Ota),2020-10-17,00:01～01:00,0.0349,0.0304,0.0331,
大田 (Ota),2020-10-16,23:01～24:00,0.0357,0.0311,0.0332,
大田 (Ota),2020-10-16,22:01～23:00,0.0358,0.0312,0.0336,
大田 (Ota),2020-10-16,21:01～22:00,0.0367,0.0326,0.0338,
大田 (Ota),2020-10-16,20:01～21:00,0.0355,0.0314,0.0333,
大田 (Ota),2020-10-16,19:01～20:00,0.0355,0.0314,0.0330,
大田 (Ota),2020-10-16,18:01～19:00,0.0352,0.0310,0.0330,
大田 (Ota),2020-10-16,17:01～18:00,0.0347,0.0308,0.0328,
大田 (Ota),2020-10-16,16:01～17:00,0.0352,0.0314,0.0330,
大田 (Ota),2020-10-16,15:01～16:00,0.0350,0.0313,0.0332,
大田 (Ota),2020-10-16,14:01～15:00,0.0359,0.0314,0.0331,
大田 (Ota),2020-10-16,13:01～14:00,0.0367,0.0313,0.0334,
大田 (Ota),2020-10-16,12:01～13:00,0.0356,0.0314,0.0332,
大田 (Ota),2020-10-16,11:01～12:00,0.0348,0.0309,0.0330,
大田 (Ota),2020-10-16,10:01～11:00,0.0359,0.0319,0.0337,
大田 (Ota),2020-10-16,09:01～10:00,0.0353,0.0318,0.0333,
大田 (Ota),2020-10-16,08:01～09:00,0.0348,0.0310,0.0330,
大田 (Ota),2020-10-16,07:01～08:00,0.0353,0.0315,0.0336,
大田 (Ota),2020-10-16,06:01～07:00,0.0355,0.0316,0.0334,
大田 (Ota),2020-10-16,05:01～06:00,0.0345,0.0311,0.0332,
大田 (Ota),2020-10-16,04:01～05:00,0.0357,0.0312,0.0335,
大田 (Ota),2020-10-16,03:01～04:00,0.0356,0.0309,0.0334,
大田 (Ota),2020-10-16,02:01～03:00,0.0359,0.0314,0.0331,
大田 (Ota),2020-10-16,01:01～02:00,0.0361,0.0315,0.0338,
大田 (Ota),2020-10-16,00:01～01:00,0.0358,0.0322,0.0340,
大田 (Ota),2020-10-15,23:01～24:00,0.0361,0.0327,0.0344,
大田 (Ota),2020-10-15,22:01～23:00,0.0397,0.0336,0.0360,
大田 (Ota),2020-10-15,21:01～22:00,0.0392,0.0338,0.0360,
大田 (Ota),2020-10-15,20:01～21:00,0.0367,0.0321,0.0342,
大田 (Ota),2020-10-15,19:01～20:00,0.0370,0.0329,0.0350,
大田 (Ota),2020-10-15,18:01～19:00,0.0446,0.0340,0.0386,
大田 (Ota),2020-10-15,17:01～18:00,0.0486,0.0405,0.0446,
大田 (Ota),2020-10-15,16:01～17:00,0.0491,0.0412,0.0447,
大田 (Ota),2020-10-15,15:01～16:00,0.0512,0.0409,0.0468,
大田 (Ota),2020-10-15,14:01～15:00,0.0460,0.0387,0.0422,
大田 (Ota),2020-10-15,13:01～14:00,0.0460,0.0349,0.0410,
大田 (Ota),2020-10-15,12:01～13:00,0.0412,0.0352,0.0375,
大田 (Ota),2020-10-15,11:01～12:00,0.0448,0.0364,0.0392,
大田 (Ota),2020-10-15,10:01～11:00,0.0475,0.0388,0.0423,
大田 (Ota),2020-10-15,09:01～10:00,0.0476,0.0408,0.0443,
大田 (Ota),2020-10-15,08:01～09:00,0.0462,0.0369,0.0408,
大田 (Ota),2020-10-15,07:01～08:00,0.0392,0.0338,0.0362,
大田 (Ota),2020-10-15,06:01～07:00,0.0371,0.0318,0.0339,
大田 (Ota),2020-10-15,05:01～06:00,0.0361,0.0312,0.0336,
大田 (Ota),2020-10-15,04:01～05:00,0.0349,0.0316,0.0334,
大田 (Ota),2020-10-15,03:01～04:00,0.0358,0.0315,0.0335,
大田 (Ota),2020-10-15,02:01～03:00,0.0357,0.0315,0.0335,
大田 (Ota),2020-10-15,01:01～02:00,0.0354,0.0313,0.0336,
大田 (Ota),2020-10-15,00:01～01:00,0.0362,0.0311,0.0336,
大田 (Ota),2020-10-14,23:01～24:00,0.0348,0.0317,0.0332,
大田 (Ota),2020-10-14,22:01～23:00,0.0357,0.0311,0.0333,
大田 (Ota),2020-10-14,21:01～22:00,0.0358,0.0317,0.0333,
大田 (Ota),2020-10-14,20:01～21:00,0.0351,0.0312,0.0333,
大田 (Ota),2020-10-14,19:01～20:00,0.0349,0.0312,0.0331,
大田 (Ota),2020-10-14,18:01～19:00,0.0348,0.0309,0.0331,
大田 (Ota),2020-10-14,17:01～18:00,0.0352,0.0315,0.0331,
大田 (Ota),2020-10-14,16:01～17:00,0.0357,0.0312,0.0333,
大田 (Ota),2020-10-14,15:01～16:00,0.0361,0.0309,0.0334,
大田 (Ota),2020-10-14,14:01～15:00,0.0353,0.0316,0.0332,
大田 (Ota),2020-10-14,13:01～14:00,0.0355,0.0315,0.0334,
大田 (Ota),2020-10-14,12:01～13:00,0.0357,0.0319,0.0333,
大田 (Ota),2020-10-14,11:01～12:00,0.0358,0.0318,0.0334,
大田 (Ota),2020-10-14,10:01～11:00,0.0362,0.0314,0.0334,
大田 (Ota),2020-10-14,09:01～10:00,0.0357,0.0309,0.0333,
大田 (Ota),2020-10-14,08:01～09:00,0.0357,0.0315,0.0334,
大田 (Ota),2020-10-14,07:01～08:00,0.0357,0.0312,0.0334,
大田 (Ota),2020-10-14,06:01～07:00,0.0363,0.0309,0.0333,
大田 (Ota),2020-10-14,05:01～06:00,0.0354,0.0317,0.0335,
大田 (Ota),2020-10-14,04:01～05:00,0.0356,0.0305,0.0331,
大田 (Ota),2020-10-14,03:01～04:00,0.0360,0.0306,0.0330,
大田 (Ota),2020-10-14,02:01～03:00,0.0349,0.0312,0.0329,
大田 (Ota),2020-10-14,01:01～02:00,0.0352,0.0312,0.0332,
大田 (Ota),2020-10-14,00:01～01:00,0.0351,0.0309,0.0330,
大田 (Ota),2020-10-13,23:01～24:00,0.0349,0.0314,0.0330,
大田 (Ota),2020-10-13,22:01～23:00,0.0361,0.0313,0.0330,
大田 (Ota),2020-10-13,21:01～22:00,0.0350,0.0311,0.0330,
大田 (Ota),2020-10-13,20:01～21:00,0.0346,0.0312,0.0328,
大田 (Ota),2020-10-13,19:01～20:00,0.0347,0.0305,0.0328,
大田 (Ota),2020-10-13,18:01～19:00,0.0354,0.0306,0.0332,
大田 (Ota),2020-10-13,17:01～18:00,0.0346,0.0313,0.0331,
大田 (Ota),2020-10-13,16:01～17:00,0.0358,0.0308,0.0332,
大田 (Ota),2020-10-13,15:01～16:00,0.0352,0.0313,0.0331,
大田 (Ota),2020-10-13,14:01～15:00,0.0361,0.0314,0.0332,
大田 (Ota),2020-10-13,13:01～14:00,0.0361,0.0311,0.0337,
大田 (Ota),2020-10-13,12:01～13:00,0.0367,0.0318,0.0336,
大田 (Ota),2020-10-13,11:01～12:00,0.0353,0.0321,0.0337,
大田 (Ota),2020-10-13,10:01～11:00,0.0355,0.0320,0.0336,
大田 (Ota),2020-10-13,09:01～10:00,0.0359,0.0317,0.0338,
大田 (Ota),2020-10-13,08:01～09:00,0.0355,0.0312,0.0335,
大田 (Ota),2020-10-13,07:01～08:00,0.0361,0.0325,0.0340,
大田 (Ota),2020-10-13,06:01～07:00,0.0368,0.0317,0.0343,
大田 (Ota),2020-10-13,05:01～06:00,0.0363,0.0323,0.0341,
大田 (Ota),2020-10-13,04:01～05:00,0.0351,0.0314,0.0336,
大田 (Ota),2020-10-13,03:01～04:00,0.0356,0.0320,0.0336,
大田 (Ota),2020-10-13,02:01～03:00,0.0354,0.0313,0.0333,
大田 (Ota),2020-10-13,01:01～02:00,0.0355,0.0311,0.0331,
大田 (Ota),2020-10-13,00:01～01:00,0.0343,0.0312,0.0329,
大田 (Ota),2020-10-12,23:01～24:00,0.0357,0.0300,0.0327,
大田 (Ota),2020-10-12,22:01～23:00,0.0350,0.0314,0.0329,
大田 (Ota),2020-10-12,21:01～22:00,0.0354,0.0305,0.0330,
大田 (Ota),2020-10-12,20:01～21:00,0.0356,0.0309,0.0329,
大田 (Ota),2020-10-12,19:01～20:00,0.0356,0.0311,0.0329,
大田 (Ota),2020-10-12,18:01～19:00,0.0362,0.0298,0.0324,
大田 (Ota),2020-10-12,17:01～18:00,0.0347,0.0309,0.0327,
大田 (Ota),2020-10-12,16:01～17:00,0.0344,0.0309,0.0328,
大田 (Ota),2020-10-12,15:01～16:00,0.0349,0.0314,0.0329,
大田 (Ota),2020-10-12,14:01～15:00,0.0349,0.0313,0.0329,
大田 (Ota),2020-10-12,13:01～14:00,0.0351,0.0301,0.0327,
大田 (Ota),2020-10-12,12:01～13:00,0.0345,0.0310,0.0328,
大田 (Ota),2020-10-12,11:01～12:00,0.0344,0.0301,0.0326,
大田 (Ota),2020-10-12,10:01～11:00,0.0351,0.0311,0.0328,
大田 (Ota),2020-10-12,09:01～10:00,0.0356,0.0304,0.0331,
大田 (Ota),2020-10-12,08:01～09:00,0.0345,0.0312,0.0327,
大田 (Ota),2020-10-12,07:01～08:00,0.0352,0.0304,0.0326,
大田 (Ota),2020-10-12,06:01～07:00,0.0345,0.0307,0.0324,
大田 (Ota),2020-10-12,05:01～06:00,0.0355,0.0301,0.0326,
大田 (Ota),2020-10-12,04:01～05:00,0.0347,0.0308,0.0326,
大田 (Ota),2020-10-12,03:01～04:00,0.0346,0.0306,0.0328,
大田 (Ota),2020-10-12,02:01～03:00,0.0343,0.0307,0.0325,
大田 (Ota),2020-10-12,01:01～02:00,0.0356,0.0310,0.0328,
大田 (Ota),2020-10-12,00:01～01:00,0.0346,0.0307,0.0327,
